Date String (YYYY-MM-DD hh:mm:ss) UTC,Instrument flags,Ambient pressure (hPa),Sample flow (lpm),Bypass flow (lpm),Sample temperature (°C),Ambient temperature (°C),ASC tube jacket temperature (°C),LED temperature (°C),Box temperature (°C),Sample RH (%),Span deviation,Mass concentration (μg/m³),Mass concentration (μg/m³),Mass concentration (μg/m³)
DateTimeUTC,F1_M11,P_M11,Q1_M11,Q2_M11,T1_M11,T2_M11,T3_M11,T4_M11,T5_M11,U1_M11,ZSPAN_M11,X0_M11,X2_M11,X1_M11
2023-02-09 12:00:00,,0828.9,5.02,0.00,22.6,20.9,00.0,31.5,24.3,08.1,0000.0,0001.20,0000.62,0000.40
2023-02-09 12:01:00,,0829.0,4.97,0.00,22.6,20.9,00.0,31.5,24.2,08.1,0000.0,0001.12,0000.62,0000.41
2023-02-09 12:02:00,,0829.0,5.00,0.00,22.6,20.8,00.0,31.5,24.2,08.1,0000.0,0001.01,0000.58,0000.41
2023-02-09 12:03:00,,0829.1,5.03,0.00,22.5,20.8,00.0,31.5,24.2,08.0,0000.0,0001.02,0000.58,0000.40
2023-02-09 12:04:00,,0829.0,4.99,0.00,22.5,20.7,00.0,31.4,24.2,08.0,0000.0,0001.28,0000.61,0000.41
2023-02-09 12:05:00,,0829.1,5.03,0.00,22.5,20.7,00.0,31.4,24.1,07.9,0000.0,0001.51,0000.64,0000.41
2023-02-09 12:06:00,,0829.1,5.00,0.00,22.5,21.4,00.0,31.4,24.3,07.9,0000.0,0001.56,0000.64,0000.41
2023-02-09 12:07:00,,0829.1,4.97,0.00,22.6,22.3,00.0,31.4,24.6,07.9,0000.0,0001.87,0000.74,0000.41
2023-02-09 12:08:00,,0829.1,5.01,0.00,22.7,22.8,00.0,31.4,24.7,07.7,0000.0,0002.56,0000.87,0000.42
2023-02-09 12:09:00,,0829.1,5.02,0.00,22.7,22.4,00.0,31.4,24.6,07.8,0000.0,0004.08,0001.08,0000.45
2023-02-09 12:10:00,,0829.1,4.99,0.00,22.7,21.9,00.0,31.4,24.5,07.8,0000.0,0005.64,0001.28,0000.47
2023-02-09 12:11:00,,0829.1,5.10,0.00,22.7,21.6,00.0,31.5,24.4,07.8,0000.0,0006.73,0001.46,0000.49
2023-02-09 12:12:00,,0829.1,4.97,0.00,22.6,21.3,00.0,31.5,24.3,08.0,0000.0,0007.70,0001.62,0000.49
2023-02-09 12:13:00,,0829.1,4.98,0.00,22.6,21.1,00.0,31.5,24.3,08.0,0000.0,0008.16,0001.71,0000.49
2023-02-09 12:14:00,,0829.2,5.00,0.00,22.6,20.9,00.0,31.5,24.3,07.9,0000.0,0008.51,0001.86,0000.49
2023-02-09 12:15:00,,0829.1,4.98,0.00,22.6,20.8,00.0,31.4,24.2,07.9,0000.0,0008.68,0001.98,0000.51
2023-02-09 12:16:00,,0829.2,5.01,0.00,22.5,20.8,00.0,31.4,24.2,07.9,0000.0,0008.75,0002.07,0000.51
2023-02-09 12:17:00,,0829.2,4.97,0.00,22.5,20.7,00.0,31.4,24.2,07.8,0000.0,0009.35,0002.11,0000.51
2023-02-09 12:18:00,,0829.3,4.98,0.00,22.5,20.6,00.0,31.4,24.1,07.6,0000.0,0009.47,0002.02,0000.51
2023-02-09 12:19:00,,0829.3,5.01,0.00,22.4,20.6,00.0,31.4,24.1,07.6,0000.0,0009.32,0001.87,0000.48
2023-02-09 12:20:00,,0829.3,5.01,0.00,22.4,20.5,00.0,31.4,24.1,07.5,0000.0,0009.19,0001.66,0000.46
2023-02-09 12:21:00,,0829.3,5.01,0.00,22.4,20.5,00.0,31.3,24.0,07.7,0000.0,0008.43,0001.57,0000.44
2023-02-09 12:22:00,,0829.2,4.99,0.00,22.3,20.5,00.0,31.3,24.0,07.7,0000.0,0008.07,0001.48,0000.43
2023-02-09 12:23:00,,0829.2,5.01,0.00,22.3,20.5,00.0,31.3,23.9,07.6,0000.0,0007.47,0001.32,0000.42
2023-02-09 12:24:00,,0829.3,5.04,0.00,22.3,20.7,00.0,31.3,24.0,07.7,0000.0,0006.82,0001.24,0000.41
2023-02-09 12:25:00,,0829.3,5.02,0.00,22.4,21.7,00.0,31.2,24.2,07.7,0000.0,0006.18,0001.09,0000.40
2023-02-09 12:26:00,,0829.4,4.97,0.00,22.5,22.6,00.0,31.2,24.5,07.7,0000.0,0007.11,0001.02,0000.38
2023-02-09 12:27:00,,0829.5,5.01,0.00,22.6,22.7,00.0,31.3,24.5,07.8,0000.0,0007.54,0000.96,0000.38
2023-02-09 12:28:00,,0829.5,4.97,0.00,22.6,22.1,00.0,31.3,24.4,07.9,0000.0,0007.45,0000.96,0000.38
2023-02-09 12:29:00,,0829.5,4.98,0.00,22.5,21.7,00.0,31.3,24.3,07.9,0000.0,0007.32,0000.99,0000.38
2023-02-09 12:30:00,,0829.5,4.97,0.00,22.5,21.4,00.0,31.3,24.2,08.0,0000.0,0007.16,0001.06,0000.39
2023-02-09 12:31:00,,0829.5,5.06,0.00,22.5,21.2,00.0,31.3,24.2,08.0,0000.0,0006.14,0001.12,0000.40
2023-02-09 12:32:00,,0829.5,4.99,0.00,22.4,21.0,00.0,31.3,24.1,08.1,0000.0,0005.97,0001.11,0000.40
2023-02-09 12:33:00,,0829.5,5.02,0.00,22.4,20.9,00.0,31.3,24.1,08.2,0000.0,0005.90,0001.07,0000.40
2023-02-09 12:34:00,,0829.6,4.98,0.00,22.4,20.7,00.0,31.3,24.0,08.2,0000.0,0006.26,0001.09,0000.40
2023-02-09 12:35:00,,0829.6,5.00,0.00,22.4,20.6,00.0,31.3,24.0,08.3,0000.0,0007.23,0001.08,0000.39
2023-02-09 12:36:00,,0829.6,4.99,0.00,22.3,20.6,00.0,31.3,24.0,08.4,0000.0,0007.28,0001.11,0000.40
2023-02-09 12:37:00,,0829.6,5.03,0.00,22.3,20.5,00.0,31.3,23.9,08.4,0000.0,0005.90,0001.07,0000.40
2023-02-09 12:38:00,,0829.7,4.99,0.00,22.3,20.5,00.0,31.2,23.9,08.4,0000.0,0004.95,0001.00,0000.39
2023-02-09 12:39:00,,0829.7,4.97,0.00,22.2,20.4,00.0,31.2,23.9,08.5,0000.0,0005.30,0000.99,0000.39
2023-02-09 12:40:00,,0829.8,5.00,0.00,22.2,20.4,00.0,31.2,23.9,08.4,0000.0,0005.20,0000.99,0000.41
2023-02-09 12:41:00,,0829.9,5.03,0.00,22.2,21.1,00.0,31.1,24.0,08.4,0000.0,0005.13,0000.98,0000.42
2023-02-09 12:42:00,,0829.9,4.96,0.00,22.3,22.2,00.0,31.1,24.3,08.3,0000.0,0005.01,0000.94,0000.42
2023-02-09 12:43:00,,0829.9,5.02,0.00,22.5,22.8,00.0,31.1,24.5,08.3,0000.0,0005.07,0000.89,0000.43
2023-02-09 12:44:00,,0829.7,4.98,0.00,22.5,22.4,00.0,31.2,24.4,08.3,0000.0,0005.62,0000.90,0000.43
2023-02-09 12:45:00,,0829.7,5.04,0.00,22.5,21.9,00.0,31.2,24.3,08.2,0000.0,0006.12,0000.90,0000.44
2023-02-09 12:46:00,,0829.7,4.96,0.00,22.5,21.6,00.0,31.2,24.2,08.2,0000.0,0005.33,0000.93,0000.47
2023-02-09 12:47:00,,0829.8,4.90,0.00,22.4,21.3,00.0,31.3,24.1,08.2,0000.0,0006.05,0000.96,0000.48
2023-02-09 12:48:00,,0829.8,4.96,0.00,22.4,21.0,00.0,31.3,24.1,08.3,0000.0,0006.81,0000.98,0000.49
2023-02-09 12:49:00,,0829.9,5.01,0.00,22.4,20.8,00.0,31.3,24.0,08.3,0000.0,0006.83,0001.01,0000.50
2023-02-09 12:50:00,,0829.9,5.00,0.00,22.3,20.7,00.0,31.2,24.0,08.3,0000.0,0005.91,0000.99,0000.51
2023-02-09 12:51:00,,0829.9,4.99,0.00,22.3,20.6,00.0,31.2,23.9,08.3,0000.0,0005.21,0000.94,0000.51
2023-02-09 12:52:00,,0829.8,5.05,0.00,22.3,20.5,00.0,31.2,23.9,08.4,0000.0,0005.19,0000.94,0000.52
2023-02-09 12:53:00,,0829.9,4.99,0.00,22.2,20.5,00.0,31.2,23.9,08.3,0000.0,0005.14,0000.94,0000.53
2023-02-09 12:54:00,,0829.9,5.02,0.00,22.2,20.4,00.0,31.2,23.8,08.2,0000.0,0005.16,0000.99,0000.54
2023-02-09 12:55:00,,0829.9,4.97,0.00,22.2,20.4,00.0,31.2,23.8,08.1,0000.0,0004.58,0000.97,0000.54
2023-02-09 12:56:00,,0829.9,4.98,0.00,22.2,21.1,00.0,31.1,24.0,08.1,0000.0,0004.20,0000.98,0000.54
2023-02-09 12:57:00,,0829.8,5.01,0.00,22.3,22.0,00.0,31.1,24.2,08.1,0000.0,0003.73,0000.96,0000.54
2023-02-09 12:58:00,,0829.8,4.99,0.00,22.4,22.6,00.0,31.1,24.4,08.1,0000.0,0003.58,0000.98,0000.55
2023-02-09 12:59:00,,0829.9,4.99,0.00,22.5,22.2,00.0,31.2,24.4,08.0,0000.0,0002.70,0001.03,0000.55
